Location: Napier
(39.4830°S, 176.9170°E)
Time: 19:13:53
(UTC+13:00)

NOSS 2-1 (E) - Pass Details

Date: 24 January 2019
Orbit: 462 x 1742 km, 63.3° (Epoch: 13 October)

Event Time Altitude Azimuth Distance (km) Brightness Sun altitude
Rises 22:37:50 0° 214° (SW) 4,419 9.5 -19.6°
Reaches altitude 10° 22:41:08 10° 212° (SSW) 3,242 8.4 -20.0°
Maximum altitude 22:48:47 76° 126° (SE) 998 4.5 -21.0°
Enters shadow 22:50:54 42° 49° (NE) 1,249 4.6 -21.2°
